DW2640 Weather Reports


Display with metric or nautical units.
time (UTC)temp
F
wind
direction
speed
MPH
gust
MPH
rain 1hr
in
rain 24hr
in
rain mn
in
humidity
%
barometer
mb
20260906113011 76 77 0.0 2.0 0.00 0.00 0.00 71 1010.9
20260906111508 76 77 0.0 2.0 0.00 0.00 0.00 71 1010.7
20260906110010 76 77 1.0 2.0 0.00 0.00 0.00 71 1010.8
20260906104514 76 77 0.0 2.0 0.00 0.00 0.00 70 1010.6
20260906103005 76 77 0.0 2.0 0.00 0.00 0.00 69 1010.6
20260906101505 76 77 1.0 1.0 0.00 0.00 0.00 70 1010.4
20260906100004 76 77 1.0 2.0 0.00 0.00 0.00 70 1010.4
20260906094508 76 77 2.0 2.0 0.00 0.00 0.00 70 1010.4
20260906093000 77 77 2.0 4.0 0.00 0.00 0.00 69 1010.4
20260906091604 77 131 2.0 4.0 0.00 0.00 0.00 68 1010.3
20260906090057 78 131 0.0 1.0 0.00 0.00 0.00 67 1010.3
20260906084556 78 131 1.0 1.0 0.00 0.00 0.00 67 1010.3
20260906083055 78 131 0.0 2.0 0.00 0.00 0.00 66 1010.2
20260906081555 79 131 1.0 2.0 0.00 0.00 0.00 65 1010.1
20260906080053 80 131 0.0 2.0 0.00 0.00 0.00 63 1010.4
20260906074548 80 131 0.0 2.0 0.00 0.00 0.00 62 1010.1
20260906073046 80 131 0.0 2.0 0.00 0.00 0.00 62 1010.0
20260906071545 80 131 0.0 2.0 0.00 0.00 0.00 61 1010.1
20260906070044 81 131 0.0 2.0 0.00 0.00 0.00 61 1010.1
20260906064541 81 131 1.0 2.0 0.00 0.00 0.00 61 1010.2
20260906063039 81 131 0.0 2.0 0.00 0.00 0.00 62 1010.0
20260906061540 81 131 0.0 2.0 0.00 0.00 0.00 62 1010.1
20260906060034 81 131 0.0 2.0 0.00 0.00 0.00 61 1010.0
20260906054533 82 131 0.0 2.0 0.00 0.00 0.00 60 1010.1
20260906053031 82 131 1.0 3.0 0.00 0.00 0.00 60 1010.2
20260906051528 82 131 1.0 2.0 0.00 0.00 0.00 59 1010.1
20260906050025 83 138 0.0 2.0 0.00 0.00 0.00 58 1010.0
20260906044529 83 141 2.0 4.0 0.00 0.00 0.00 57 1010.2
20260906043024 84 200 1.0 4.0 0.00 0.00 0.00 56 1010.0
20260906041523 84 192 0.0 2.0 0.00 0.00 0.00 56 1010.0
20260906040030 84 192 1.0 2.0 0.00 0.00 0.00 56 1010.2
20260906034523 84 192 1.0 2.0 0.00 0.00 0.00 56 1010.1
20260906033022 85 192 0.0 2.0 0.00 0.00 0.00 54 1010.1
20260906031535 86 192 0.0 2.0 0.00 0.00 0.00 53 1009.9
20260906030021 86 192 0.0 2.0 0.00 0.00 0.00 53 1009.8
20260906024521 86 192 1.0 4.0 0.00 0.00 0.00 53 1009.4
20260906023020 87 202 0.0 2.0 0.00 0.00 0.00 51 1009.4
20260906021520 88 202 1.0 3.0 0.00 0.00 0.00 50 1009.2
20260906020026 88 189 1.0 4.0 0.00 0.00 0.00 49 1008.9
20260906014519 89 189 0.0 2.0 0.00 0.00 0.00 49 1008.7
20260906013018 90 189 0.0 2.0 0.00 0.00 0.00 47 1008.5
20260906011518 91 189 1.0 2.0 0.00 0.00 0.00 46 1008.2
20260906010016 91 189 1.0 5.0 0.00 0.00 0.00 45 1008.0
20260906004517 92 187 1.0 4.0 0.00 0.00 0.00 45 1008.0
20260906003023 93 203 2.0 6.0 0.00 0.00 0.00 44 1008.3
20260906001515 95 219 0.0 3.0 0.00 0.00 0.00 41 1008.5
20260906000015 96 203 1.0 5.0 0.00 0.00 0.00 38 1008.4
20260905234515 98 225 3.0 8.0 0.00 0.00 0.00 35 1008.5
20260905233017 99 215 5.0 10.0 0.00 0.00 0.00 35 1008.6
20260905231514 99 232 6.0 10.0 0.00 0.00 0.00 35 1008.3
20260905230013 99 203 3.0 7.0 0.00 0.00 0.00 34 1008.3
20260905224511 99 182 3.0 12.0 0.00 0.00 0.00 35 1008.4
20260905223029 99 223 4.0 12.0 0.00 0.00 0.00 35 1008.2
20260905221529 99 168 8.0 15.0 0.00 0.00 0.00 36 1008.2
20260905220009 100 140 3.0 12.0 0.00 0.00 0.00 35 1007.9
20260905214508 100 244 8.0 13.0 0.00 0.00 0.00 33 1008.1
20260905213008 100 223 5.0 16.0 0.00 0.00 0.00 34 1008.1
20260905211517 100 177 7.0 11.0 0.00 0.00 0.00 35 1008.1
20260905210005 99 144 4.0 13.0 0.00 0.00 0.00 35 1008.5
20260905204604 98 208 5.0 10.0 0.00 0.00 0.00 37 1008.8
20260905203100 99 213 4.0 13.0 0.00 0.00 0.00 37 1008.8
20260905201608 99 254 9.0 13.0 0.00 0.00 0.00 36 1009.4
20260905200123 99 186 5.0 12.0 0.00 0.00 0.00 35 1009.5
20260905194554 99 180 7.0 14.0 0.00 0.00 0.00 37 1009.8
20260905193053 97 161 5.0 10.0 0.00 0.00 0.00 40 1010.0
20260905191554 99 168 5.0 10.0 0.00 0.00 0.00 38 1010.0
20260905190051 98 148 3.0 12.0 0.00 0.00 0.00 39 1010.3
20260905184552 98 224 5.0 10.0 0.00 0.00 0.00 39 1010.5
20260905183050 97 127 4.0 13.0 0.00 0.00 0.00 40 1010.7
20260905181547 97 138 5.0 10.0 0.00 0.00 0.00 41 1010.9
20260905180046 97 207 6.0 13.0 0.00 0.00 0.00 42 1010.8
20260905174544 96 172 4.0 13.0 0.00 0.00 0.00 43 1010.9
20260905173044 96 165 9.0 12.0 0.00 0.00 0.00 43 1011.1
20260905171556 95 200 7.0 13.0 0.00 0.00 0.00 44 1011.4
20260905170039 95 175 7.0 13.0 0.00 0.00 0.00 45 1011.4
20260905164539 94 183 5.0 11.0 0.00 0.00 0.00 47 1011.5
20260905163032 94 248 7.0 11.0 0.00 0.00 0.00 47 1011.4
20260905161536 93 252 4.0 10.0 0.00 0.00 0.00 48 1011.4
20260905160036 92 175 6.0 10.0 0.00 0.00 0.00 50 1011.3
20260905154543 91 185 6.0 12.0 0.00 0.00 0.00 51 1011.2
20260905153017 90 132 3.0 9.0 0.00 0.00 0.00 53 1011.4
20260905151515 89 175 5.0 9.0 0.00 0.00 0.00 55 1011.1
20260905150009 88 198 5.0 11.0 0.00 0.00 0.00 57 1011.0
20260905144505 87 200 5.0 10.0 0.00 0.00 0.00 59 1010.8
20260905143002 86 200 4.0 11.0 0.00 0.00 0.00 60 1010.8
20260905141600 86 182 5.0 9.0 0.00 0.00 0.00 60 1010.7
20260905140057 84 221 4.0 9.0 0.00 0.00 0.00 63 1010.8
20260905134557 82 188 3.0 7.0 0.00 0.00 0.00 66 1010.9
20260905133054 80 158 4.0 7.0 0.00 0.00 0.00 69 1010.9
20260905131554 79 161 4.0 7.0 0.00 0.00 0.00 71 1011.0
20260905130050 79 142 3.0 7.0 0.00 0.00 0.00 71 1010.7
20260905124551 77 188 1.0 4.0 0.00 0.00 0.00 73 1010.6
20260905123048 76 166 1.0 3.0 0.00 0.00 0.00 74 1010.5
20260905121548 76 154 1.0 4.0 0.00 0.00 0.00 75 1010.4
20260905120047 76 172 0.0 2.0 0.00 0.00 0.00 75 1010.1
20260905114555 76 154 1.0 4.0 0.00 0.00 0.00 74 1009.9